Weather in Yamgort

Russia / Yamalo-Nenets Autonomous Okrug     64°56′17″N   64°22′09″E
temp.,
°C
wind,
m/s
gust,
m/s
humid.,
%
clouds,
%
prec.,
mm/h
press.,
hPa
HPBL,
m
27 february, sat
sat2723:00−21ssw3395100 0.0 102223
02:00−21ssw339596 0.0 102221
05:00−21s339692 0.0 102220
08:00−21s339598 0.0 102228
11:00−19ssw349395 0.0 1022249
14:00−17ssw358894 0.0 1022396
17:00−19ssw339495 0.0 102224
20:00−23s349828 0.0 102122
28 february, sun
sun2823:00−24ssw349727 0.0 102222
02:00−26ssw349823 0.0 102120
05:00−27s349826 0.0 102120
08:00−28ssw349626 0.0 102121
11:00−24ssw459427 0.0 1021233
14:00−21ssw459157 0.0 1020332
17:00−22s339261 0.0 102037
20:00−25s449468 0.0 101930
1 march, mon
mon123:00−26ssw349769 0.0 102023
02:00−27ssw349975 0.0 101921
05:00−27ssw349978 0.0 101929
08:00−27ssw349979 0.0 101834
11:00−23ssw579683 0.0 1017293
14:00−18ssw589299 0.0 1014439
17:00−18s599499 0.0 1013186
20:00−20s579796 0.0 1010104
2 march, tue
tue223:00−19s5109796 0.0 1008171
02:00−18s6129397 0.0 1006278
05:00−17s7139199 0.0 1004354
08:00−17s81389100 0.0 1003417
11:00−16s81290100 0.2 1003463
14:00−14s81189100 0.2 1002518
17:00−13s71290100 0.3 1002548
20:00−13s61294100 0.3 1001522
3 march, wed
wed323:00−12s71294100 0.9 1001562
02:00−13s61195100 0.6 1000486
05:00−14s61095100 1.3 1000405
08:00−14sse61095100 0.6 1000359
11:00−13s6994100 1.1 1000462
14:00−12s6893100 0.4 1000482
17:00−12s5894100 0.7 1000384
20:00−14s4796100 0.1 1000148